Home   Weather   Amadora   Past weeks

Flag for Portugal Past Weather in Amadora, Portugal — Yesterday and Last 2 Weeks

Now
72 °F

Clear.


Feels Like: 76 °F
Forecast: 60 / 80 °F
Wind: 17 mph from Northwest

Location: Lisbon Portela Airport

Current Time: Sep 29, 2016 at 9:33:40 PM

Latest Report: Sep 29, 2016 at 9:00 PM


Visibility: 10 mi

Pressure: 30.07 "Hg

Humidity: 61%

Dew Point: 57 °F

Location of AmadoraLocation

Past Weather in Amadora — Graph

°F

Amadora Temperature Yesterday

Maximum temperature yesterday: 91 °F (at 3:30 PM)
Minimum temperature yesterday: 70 °F (at 5:00 AM)
Average temperature yesterday: 80 °F

High & Low Weather Summary for the Past Weeks

 TemperatureHumidityPressure
High91 °F (Sep 28, 3:30 PM)94% (Sep 15, 6:00 AM)30.24 "Hg (Sep 15, 6:00 AM)
Low57 °F (Sep 15, 7:00 AM)20% (Sep 19, 4:00 PM)29.98 "Hg (Sep 20, 3:30 AM)
Average69 °F65%30.12 "Hg
* Reported Sep 14 8:00 PM — Sep 29 8:30 PM, Amadora, Weather by CustomWeather, © 2016

Note: Actual official high and low records may vary slightly from our data, if they occured in-between our weather recording intervals... More about our weather records

Advertising

Amadora Weather History for the Previous 24 Hours

Scroll right to see more
 ConditionsComfort  
Time TempWeatherWind HumidityBarometerVisibility
8:30 PM
Thu, Sep 29
72 °FClear.16 mph61%30.07 "Hg10 mi
8:00 PM72 °FClear.15 mph61%30.07 "Hg10 mi
7:30 PM73 °FClear.14 mph57%30.07 "Hg10 mi
7:00 PM75 °FSunny.14 mph54%30.07 "Hg10 mi
6:30 PM77 °FSunny.13 mph51%30.07 "Hg10 mi
6:00 PM79 °FSunny.14 mph48%30.07 "Hg10 mi
5:30 PM82 °FSunny.10 mph42%30.07 "Hg10 mi
5:00 PM86 °FPassing clouds.9 mph29%30.07 "HgN/A
4:30 PM84 °FPassing clouds.9 mph31%30.09 "HgN/A
4:00 PM84 °FPassing clouds.9 mph31%30.09 "HgN/A
3:30 PM84 °FPassing clouds.8 mph31%30.09 "HgN/A
3:00 PM84 °FSunny.8 mph31%30.12 "Hg10 mi
2:30 PM82 °FPassing clouds.8 mph32%30.12 "HgN/A
2:00 PM82 °FPassing clouds.7 mph32%30.15 "HgN/A
1:30 PM81 °FPassing clouds.8 mph37%30.15 "HgN/A
1:00 PM81 °FPassing clouds.10 mph39%30.18 "HgN/A
12:30 PM79 °FPassing clouds.10 mph45%30.18 "HgN/A
12:00 PM77 °FPassing clouds.10 mph47%30.18 "HgN/A
11:30 AM77 °FPassing clouds.8 mph47%30.21 "HgN/A
11:00 AM75 °FPassing clouds.8 mph50%30.21 "HgN/A
10:30 AM72 °FPassing clouds.9 mph61%30.21 "HgN/A
10:00 AM72 °FPassing clouds.7 mph65%30.21 "HgN/A
9:30 AM68 °FPassing clouds.7 mph69%30.21 "HgN/A
9:00 AM66 °FSunny.9 mph73%30.21 "Hg10 mi
8:30 AM64 °FSunny.7 mph78%30.21 "Hg10 mi
8:00 AM63 °FSunny.6 mph83%30.21 "Hg10 mi
7:30 AM61 °FClear.5 mph94%30.18 "Hg10 mi
7:00 AM63 °FClear.6 mph88%30.18 "Hg10 mi
6:30 AM63 °FClear.6 mph88%30.18 "Hg10 mi
6:00 AM63 °FClear.3 mph94%30.18 "Hg10 mi
5:30 AM63 °FClear.3 mph88%30.18 "Hg10 mi
5:00 AM63 °FClear.5 mph94%30.18 "Hg10 mi
4:30 AM64 °FClear.3 mph88%30.18 "Hg10 mi
4:00 AM68 °FPassing clouds.6 mph64%30.18 "HgN/A
3:30 AM68 °FPassing clouds.5 mph64%30.18 "HgN/A
3:00 AM70 °FClear.6 mph69%30.18 "Hg10 mi
2:30 AM75 °FClear.8 mph41%30.18 "Hg10 mi
2:00 AM75 °FClear.8 mph41%30.18 "Hg10 mi
1:30 AM72 °FClear.7 mph50%30.18 "Hg10 mi
1:00 AM73 °FPassing clouds.6 mph47%30.18 "HgN/A
12:30 AM73 °FClear.5 mph47%30.18 "Hg10 mi
12:00 AM75 °FClear.5 mph47%30.18 "Hg10 mi
11:30 PM
Wed, Sep 28
79 °FPassing clouds.9 mph37%30.18 "HgN/A
11:00 PM81 °FPassing clouds.10 mph32%30.18 "HgN/A
10:30 PM82 °FClear.14 mph30%30.18 "Hg10 mi
10:00 PM82 °FClear.15 mph30%30.18 "Hg10 mi
9:30 PM82 °FClear.12 mph30%30.15 "Hg10 mi
9:00 PM82 °FClear.12 mph32%30.15 "Hg10 mi
Weather by CustomWeather, © 2016

See weather overviewHow to use our weather pages